Durango, CO

2:49 PM MDT on May 24, 2017 (GMT -0600)
Durango-La Plata County

Weather History for KDRO - October, 2011

Change the Weather History Date:

Saturday, October 22, 2011

  Actual Average Record
Temperature  
Mean Temperature 48 °F 44 °F  
Max Temperature 71 °F 60 °F 79 °F (2003)
Min Temperature 28 °F 29 °F 10 °F (1996)
Degree Days  
Heating Degree Days 16 21  
Month to date heating degree days 361  
Since 1 July heating degree days 585  
Cooling Degree Days 0 0  
Month to date cooling degree days 0  
Year to date cooling degree days 243  
Moisture  
Dew Point 23 °F    
Average Humidity 42    
Maximum Humidity 75    
Minimum Humidity 15    
Precipitation  
Precipitation 0.00 in 0.03 in 1.20 in (1974)
Month to date precipitation 1.01  
Year to date precipitation 12.89  
Sea Level Pressure  
Sea Level Pressure 30.18 in    
Wind  
Wind Speed 4 mph (NNE)    
Max Wind Speed 18 mph    
Max Gust Speed 23 mph    
Visibility 10 miles    
Events      
T = Trace of Precipitation, MM = Missing Value Source: NWS Daily Summary

Daily Weather History Graph

Daily Weather History Graph

Search for Another Location

Airport or City:

Trip Planner

Search our weather history database for the weather conditions in past years. The results will help you decide how hot, cold, wet, or windy it might be!

Date:

Astronomy

Oct. 22, 2011 Rise Set
Actual Time 7:25 AM MDT 6:25 PM MDT
Civil Twilight 6:58 AM MDT 6:51 PM MDT
Nautical Twilight 6:28 AM MDT 7:21 PM MDT
Astronomical Twilight 5:58 AM MDT 7:52 PM MDT
Moon 2:32 AM MDT (10/22) 3:39 PM MDT (10/22)
Length of Visible Light 11h 52m
Length of Day
10h 59m
Waning Crescent, 23% of the Moon is Illuminated
Oct 22
Waning Crescent
Oct 26
New
Nov 2
First Quarter
Nov 10
Full
Nov 18
Last Quarter

Hourly Weather History & Observations

Time (MDT) Temp. Windchill Dew Point Humidity Pressure Visibility Wind Dir Wind Speed Gust Speed Precip Events Conditions
12:53 AM 37.9 °F - 21.9 °F 53% 30.16 in 10.0 mi Calm Calm - N/A   Clear
1:53 AM 36.0 °F 33.3 °F 21.9 °F 57% 30.15 in 10.0 mi North 3.5 mph - N/A   Clear
2:53 AM 32.0 °F 28.7 °F 21.0 °F 64% 30.17 in 10.0 mi ESE 3.5 mph - N/A   Clear
3:53 AM 30.9 °F 26.2 °F 21.0 °F 67% 30.18 in 10.0 mi NE 4.6 mph - N/A   Clear
4:53 AM 34.0 °F - 23.0 °F 64% 30.17 in 10.0 mi Calm Calm - N/A   Clear
5:53 AM 28.9 °F 22.8 °F 21.9 °F 75% 30.21 in 10.0 mi NE 5.8 mph - N/A   Clear
6:53 AM 30.9 °F 26.2 °F 21.9 °F 69% 30.24 in 10.0 mi East 4.6 mph - N/A   Clear
7:53 AM 33.1 °F 28.7 °F 23.0 °F 66% 30.24 in 10.0 mi NNE 4.6 mph - N/A   Clear
8:53 AM 39.0 °F 35.7 °F 24.1 °F 55% 30.24 in 10.0 mi ENE 4.6 mph - N/A   Clear
9:53 AM 46.0 °F 43.9 °F 25.0 °F 44% 30.25 in 10.0 mi Variable 4.6 mph - N/A   Clear
10:53 AM 53.1 °F - 24.1 °F 32% 30.24 in 10.0 mi ESE 4.6 mph - N/A   Clear
11:53 AM 57.9 °F - 24.1 °F 27% 30.20 in 10.0 mi East 4.6 mph - N/A   Clear
12:53 PM 62.1 °F - 25.0 °F 24% 30.17 in 10.0 mi ENE 8.1 mph - N/A   Clear
1:53 PM 64.9 °F - 21.9 °F 19% 30.13 in 10.0 mi Calm Calm - N/A   Clear
2:53 PM 69.1 °F - 19.9 °F 15% 30.10 in 10.0 mi Variable 4.6 mph 16.1 mph N/A   Clear
3:53 PM 69.1 °F - 19.9 °F 15% 30.09 in 10.0 mi WSW 13.8 mph 23.0 mph N/A   Clear
4:53 PM 68.0 °F - 21.0 °F 17% 30.08 in 10.0 mi West 15.0 mph - N/A   Clear
5:53 PM 64.0 °F - 21.9 °F 20% 30.12 in 10.0 mi WSW 18.4 mph - N/A   Clear
6:53 PM 60.1 °F - 21.9 °F 23% 30.15 in 10.0 mi SW 11.5 mph - N/A   Clear
7:53 PM 57.0 °F - 23.0 °F 27% 30.17 in 10.0 mi WSW 9.2 mph - N/A   Clear
8:53 PM 50.0 °F - 25.0 °F 38% 30.19 in 10.0 mi North 4.6 mph - N/A   Clear
9:53 PM 46.0 °F 44.8 °F 26.1 °F 46% 30.20 in 10.0 mi North 3.5 mph - N/A   Clear
10:53 PM 43.0 °F - 25.0 °F 49% 30.19 in 10.0 mi Calm Calm - N/A   Clear
11:53 PM 43.0 °F 40.3 °F 26.1 °F 51% 30.17 in 10.0 mi North 4.6 mph - N/A   Clear